Regional Weather Roundup
Issued by NWS Charleston, WV

Home | Current Version | Previous Version | Text Only | Print | Product List | Glossary Off
Versions: 1 2 3 4 5 6 7 8 9 10 11 12 13 14 15 16 17 18 19 20 21 22 23 24 25 26 27 28 29 30 31 32 33 34 35 36 37 38 39 40 41 42 43 44 45 46 47 48 49 50

000
ASUS41 KRLX 201210
RWRRLX
West Virginia Regional Weather Roundup
National Weather Service Charleston WV
800 AM EDT SAT SEP 20 2014

Note: "fair" indicates few or no clouds below 12,000 feet with no
significant weather and/or obstructions to visibility.

WVZ003-201300-
Northern Panhandle of West Virginia

CITY           SKY/WX    TMP DP  RH WIND       PRES   REMARKS
WHEELING       PTCLDY    60  55  83 S7        30.15R
$$

WVZ009-201300-
Northwest West Virginia

CITY           SKY/WX    TMP DP  RH WIND       PRES   REMARKS
PARKERSBURG    PTCLDY    62  57  83 SW5       30.18R
$$

WVZ006-201300-
Western West Virginia

CITY           SKY/WX    TMP DP  RH WIND       PRES   REMARKS
HUNTINGTON     PTCLDY    62  58  86 CALM      30.14R
$$

WVZ015-201300-
West Central West Virginia

CITY           SKY/WX    TMP DP  RH WIND       PRES   REMARKS
CHARLESTON     MOCLDY    59  58  96 CALM      30.16S
$$

WVZ031-201300-
North Central West Virginia

CITY           SKY/WX    TMP DP  RH WIND       PRES   REMARKS
CLARKSBURG     CLEAR     55  53  93 CALM      30.18R
MORGANTOWN     CLEAR     60  54  80 CALM      30.19R
$$

WVZ035-042-045-201300-
South Central West Virginia

CITY           SKY/WX    TMP DP  RH WIND       PRES   REMARKS
BECKLEY        CLEAR     59  55  87 SE12      30.25R
BLUEFIELD      CLEAR     62  54  74 SE9G17    30.27R
LEWISBURG      CLOUDY    61  55  79 CALM      30.28R
$$

WVZ047-201300-
Northern Mountains of West Virginia

CITY           SKY/WX    TMP DP  RH WIND       PRES   REMARKS
ELKINS         CLOUDY    61  55  81 S7        30.24R
$$

WVZ052-201300-
Eastern Panhandle of West Virginia

CITY           SKY/WX    TMP DP  RH WIND       PRES   REMARKS
MARTINSBURG    SUNNY     62  57  83 SE3       30.24F HAZE
PETERSBURG     SUNNY     60  57  89 SE6       30.23S
$$


USA.gov is the U.S. government's official web portal to all federal, state and local government web resources and services.